Latrobe, PA

6:45 PM EDT on August 22, 2019 (GMT -0400)
Arnold Palmer Regional

Weather History for KLBE - May, 2019

Change the Weather History Date:

Thursday, May 2, 2019

  Actual Average Record
Temperature  
Mean Temperature 67 °F -  
Max Temperature 77 °F 68 °F 86 °F (2001)
Min Temperature 57 °F 44 °F 37 °F (1997)
Cooling Degree Days 2    
Growing Degree Days 17 (Base 50)    
Moisture  
Dew Point 60 °F    
Average Humidity 82    
Maximum Humidity 100    
Minimum Humidity 50    
Precipitation  
Precipitation 0.00 in - - ()
Sea Level Pressure  
Sea Level Pressure 30.11 in    
Wind  
Wind Speed 4 mph (WSW)    
Max Wind Speed 17 mph    
Max Gust Speed 17 mph    
Visibility 10 miles    
Events Rain , Thunderstorm    
Averages and records for this station are not official NWS values.
T = Trace of Precipitation, MM = Missing Value Source: NWS Daily Summary

Daily Weather History Graph

Daily Weather History Graph

Search for Another Location

Airport or City:

Astronomy

May. 02, 2019 Rise Set
Actual Time 6:16 AM EDT 8:13 PM EDT
Civil Twilight 5:46 AM EDT 8:43 PM EDT
Nautical Twilight 5:10 AM EDT 9:19 PM EDT
Astronomical Twilight 4:31 AM EDT 9:58 PM EDT
Moon 5:28 AM EDT (5/2) 5:58 PM EDT (5/2)
Length of Visible Light 14h 56m
Length of Day
13h 57m
Waning Crescent, 5% of the Moon is Illuminated
May 2
Waning Crescent
May 4
New
May 11
First Quarter
May 18
Full
May 26
Last Quarter

Hourly Weather History & Observations

Time (EDT) Temp. Dew Point Humidity Pressure Visibility Wind Dir Wind Speed Gust Speed Precip Events Conditions
12:15 AM 66.2 °F 59.0 °F 78% 30.10 in 10.0 mi Variable 4.6 mph - N/A   Scattered Clouds
12:35 AM 66.2 °F 59.0 °F 78% 30.11 in 10.0 mi NNE 4.6 mph - N/A   Mostly Cloudy
12:55 AM 66.2 °F 59.0 °F 78% 30.12 in 10.0 mi North 6.9 mph - N/A   Scattered Clouds
1:15 AM 66.2 °F 59.0 °F 78% 30.12 in 10.0 mi North 3.5 mph - N/A   Partly Cloudy
1:35 AM 64.4 °F 59.0 °F 83% 30.12 in 10.0 mi Calm Calm - N/A   Clear
1:55 AM 64.4 °F 59.0 °F 83% 30.12 in 10.0 mi Calm Calm - N/A   Clear
2:15 AM 62.6 °F 59.0 °F 88% 30.11 in 10.0 mi Calm Calm - N/A   Clear
2:35 AM 62.6 °F 60.8 °F 94% 30.12 in 10.0 mi Calm Calm - N/A   Clear
2:55 AM 60.8 °F 60.8 °F 100% 30.11 in 10.0 mi Calm Calm - N/A   Clear
3:15 AM 60.8 °F 60.8 °F 100% 30.10 in 10.0 mi Calm Calm - N/A   Clear
3:35 AM 59.0 °F 59.0 °F 100% 30.10 in 10.0 mi Calm Calm - N/A   Clear
3:55 AM 59.0 °F 59.0 °F 100% 30.10 in 10.0 mi Calm Calm - N/A   Clear
4:15 AM 57.2 °F 57.2 °F 100% 30.09 in 10.0 mi Calm Calm - N/A   Clear
4:35 AM 57.2 °F 57.2 °F 100% 30.09 in 10.0 mi Calm Calm - N/A   Clear
4:55 AM 57.2 °F 57.2 °F 100% 30.09 in 10.0 mi Calm Calm - N/A   Partly Cloudy
5:15 AM 57.2 °F 57.2 °F 100% 30.09 in 10.0 mi Calm Calm - N/A   Scattered Clouds
5:35 AM 57.2 °F 57.2 °F 100% 30.11 in 10.0 mi West 6.9 mph - N/A Rain Light Rain
5:55 AM 59.0 °F 59.0 °F 100% 30.11 in 10.0 mi Calm Calm - N/A   Light Drizzle
6:53 AM 59.0 °F 59.0 °F 100% 30.11 in 10.0 mi WSW 5.8 mph - N/A   Partly Cloudy
7:53 AM 62.6 °F 62.6 °F 100% 30.14 in 10.0 mi SW 8.1 mph - N/A   Scattered Clouds
8:53 AM 64.4 °F 62.6 °F 94% 30.15 in 10.0 mi SSW 11.5 mph - N/A   Overcast
9:53 AM 69.8 °F 62.6 °F 78% 30.15 in 10.0 mi WSW 11.5 mph - N/A   Overcast
10:53 AM 69.8 °F 60.8 °F 73% 30.16 in 10.0 mi SW 11.5 mph - N/A   Mostly Cloudy
11:53 AM 71.6 °F 60.8 °F 69% 30.16 in 10.0 mi WSW 17.3 mph - N/A   Mostly Cloudy
12:45 PM 73.4 °F 60.8 °F 65% 30.16 in 10.0 mi SW 11.5 mph - N/A   Mostly Cloudy
1:45 PM 73.4 °F 59.0 °F 61% 30.15 in 10.0 mi SW 12.7 mph - N/A   Mostly Cloudy
2:45 PM 73.4 °F 59.0 °F 61% 30.14 in 10.0 mi WSW 5.8 mph - N/A   Scattered Clouds
3:45 PM 77.0 °F 59.0 °F 54% 30.12 in 10.0 mi SSW 11.5 mph - N/A   Scattered Clouds
4:51 PM 77.0 °F 57.2 °F 50% 30.07 in 10.0 mi West 8.1 mph - N/A   Partly Cloudy
5:51 PM 77.0 °F 57.2 °F 50% 30.08 in 10.0 mi West 10.4 mph - N/A   Partly Cloudy
6:51 PM 77.0 °F 57.2 °F 50% 30.08 in 10.0 mi SW 4.6 mph - N/A   Partly Cloudy
7:51 PM 77.0 °F 57.2 °F 50% 30.08 in 10.0 mi Calm Calm - N/A   Partly Cloudy
8:51 PM 73.4 °F 59.0 °F 61% 30.08 in 10.0 mi Calm Calm - N/A   Clear
9:51 PM 66.2 °F 59.0 °F 78% 30.09 in 10.0 mi Calm Calm - N/A   Clear
10:15 PM 66.2 °F 59.0 °F 78% 30.08 in 10.0 mi Calm Calm - N/A   Scattered Clouds
10:35 PM 64.4 °F 60.8 °F 88% 30.09 in 10.0 mi West 12.7 mph - N/A   Mostly Cloudy
10:55 PM 68.0 °F 60.8 °F 78% 30.10 in 10.0 mi West 6.9 mph 17.3 mph N/A   Overcast
11:15 PM 66.2 °F 62.6 °F 88% 30.09 in 10.0 mi East 4.6 mph - N/A   Light Drizzle
11:35 PM 64.4 °F 64.4 °F 100% 30.09 in 10.0 mi SE 4.6 mph - N/A   Mostly Cloudy
11:55 PM 64.4 °F 64.4 °F 100% 30.11 in 10.0 mi SSW 16.1 mph - N/A Thunderstorm Mostly Cloudy